Wind_Speed
30 30 30 31 32 31 33 33 33 32 32 32 33 33 33 33 34 34 35 35 35 35 36 37 37 38 40 40 41 41 42 42 42 41 39 39 39 38
30 30 31 31 30 30 31 32 32 31 31 31 32 33 32 33 33 33 33 33 34 35 36 37 38 39 40 41 41 41 41 40 39 38 37 36 35 35
29 30 31 30 29 29 30 30 31 32 32 31 31 31 31 31 31 32 33 34 35 36 36 37 38 39 39 40 40 40 39 38 36 35 34 33 32 31
28 29 29 29 28 29 29 29 29 30 30 30 29 30 30 31 33 33 34 35 35 36 37 37 38 38 38 38 38 37 36 35 33 33 32 30 29 29
26 26 26 26 27 27 28 27 27 28 28 28 29 30 31 32 33 33 34 35 35 36 36 36 36 36 36 36 35 34 32 31 30 29 29 28 27 27
25 26 26 25 26 26 26 26 27 27 28 29 30 31 32 33 33 34 34 35 35 35 34 34 34 34 33 32 31 30 29 28 28 27 27 26 25 25
25 25 24 24 24 25 25 26 27 27 29 30 30 31 32 32 33 34 34 33 33 32 32 32 31 31 30 28 27 27 26 26 26 25 25 24 23 23
21 22 22 22 23 24 25 26 28 29 30 30 30 31 31 31 32 32 31 31 30 30 29 29 28 27 26 25 25 25 24 24 24 23 23 22 21 20
20 21 22 22 23 24 25 27 28 28 29 29 30 30 30 30 30 29 28 28 28 27 27 27 26 25 24 24 24 23 23 22 22 21 20 20 19 18
20 20 21 21 22 24 25 25 26 27 27 28 28 28 28 27 26 26 26 26 26 25 25 24 24 23 23 22 22 21 21 20 19 18 18 17 17 16
20 20 20 21 22 22 23 24 25 25 26 26 25 25 25 25 25 25 25 24 24 23 23 22 22 21 21 21 20 20 19 18 17 17 16 15 15 15
18 19 19 20 21 22 23 23 23 23 23 23 23 23 23 22 22 22 22 21 21 21 20 20 20 20 19 19 18 18 17 16 15 15 15 14 15 15
18 18 18 19 20 21 21 21 21 22 21 21 21 21 20 20 19 19 19 19 19 19 18 18 17 17 16 16 15 15 14 14 14 13 13 13 14 14
16 16 17 17 18 18 19 18 18 18 18 18 18 17 17 17 17 17 17 17 17 17 16 16 15 14 14 14 13 13 13 13 12 12 12 13 13 13
12 13 14 14 15 15 15 15 15 14 14 14 14 14 15 15 15 15 15 15 15 14 14 14 13 12 12 12 12 12 12 12 11 12 12 12 12 12
11 12 12 12 12 12 12 12 12 12 12 13 13 13 14 14 14 14 13 13 12 12 12 12 11 10 10 10 11 11 11 11 11 11 11 11 12 12
9 9 9 9 9 9 9 9 9 10 11 11 11 12 12 12 12 12 11 10 10 10 10 9 9 8 8 9 10 10 10 11 11 11 11 11 12 12
6 6 6 6 6 7 7 8 8 9 9 9 10 10 10 10 9 9 9 8 8 8 8 8 7 7 8 9 9 10 10 10 11 11 11 12 12 13
3 4 4 4 4 5 5 6 6 7 7 8 8 8 7 7 7 7 6 6 7 7 7 7 7 8 9 9 9 10 11 11 11 11 12 12 13 14
4 3 3 3 4 4 4 5 6 6 6 6 6 6 6 6 6 6 6 6 7 7 7 7 8 8 9 10 10 11 11 11 12 12 13 13 14 14
7 6 6 5 5 5 5 5 6 6 5 5 5 6 6 6 6 6 6 6 6 7 7 7 8 8 9 10 11 11 12 12 12 13 14 14 15 15
9 8 8 8 8 7 7 7 7 7 6 6 6 6 6 6 6 6 6 6 7 7 8 8 8 9 10 11 12 13 13 13 14 14 15 15 16 16
11 10 10 9 9 9 8 8 8 7 7 7 7 7 7 7 7 7 7 7 8 8 9 9 10 11 12 13 13 14 14 15 16 16 16 16 16 17
Wind_Direction
243 244 244 246 247 249 252 254 258 260 261 264 266 269 274 276 277 278 279 280 282 284 287 288 289 291 293 294 295 297 298 299 299 299 298 299 298 298
241 241 243 245 243 246 251 254 258 258 261 263 267 270 273 275 277 279 281 282 284 286 288 289 291 293 295 296 298 300 300 299 299 299 298 299 299 300
240 240 241 243 246 249 251 254 257 260 261 264 268 270 273 275 278 280 282 285 286 288 289 291 293 295 297 298 299 299 299 299 299 299 299 300 300 301
239 241 243 246 249 252 254 257 259 261 263 266 270 272 274 278 280 282 283 286 288 290 292 294 296 297 298 299 300 300 300 299 298 299 300 301 302 303
243 244 247 249 252 254 256 258 259 262 265 269 272 274 277 280 281 283 286 288 290 293 295 296 297 298 299 300 300 300 300 299 300 300 301 302 303 303
247 249 252 253 253 254 256 259 262 265 268 272 275 277 278 281 284 286 289 291 294 296 297 298 299 299 300 301 301 301 301 301 301 301 302 302 303 304
249 251 252 253 255 257 260 264 266 268 271 275 278 280 282 285 286 289 291 293 295 296 298 299 300 300 301 302 302 302 302 301 301 302 302 303 304 305
249 251 253 254 256 259 262 265 268 271 274 277 280 283 284 286 288 290 292 293 295 297 298 299 300 300 301 302 302 303 303 303 303 303 303 304 306 307
253 255 256 258 260 264 267 270 272 275 278 281 283 285 287 288 289 290 292 293 294 295 297 298 299 300 300 301 302 302 303 303 304 304 304 307 308 308
253 257 258 260 264 267 269 274 277 280 282 284 286 287 288 289 290 291 291 293 294 295 296 297 298 299 299 300 300 301 302 303 305 306 307 309 309 311
257 260 262 266 272 276 279 280 281 283 285 288 289 290 290 290 290 291 292 293 294 296 296 296 298 298 299 300 301 301 303 304 306 308 310 312 313 315
266 268 270 274 278 280 282 283 284 287 289 290 291 291 292 292 292 293 294 295 296 298 298 298 299 299 300 301 302 303 304 305 307 310 312 313 314 317
271 274 276 279 281 282 282 284 287 289 290 290 291 292 293 294 294 295 296 297 298 299 299 299 301 301 302 303 304 305 305 307 309 312 314 315 317 320
274 277 280 282 284 284 286 288 290 291 291 292 293 295 296 296 297 299 299 299 299 300 301 301 301 301 302 304 305 306 308 310 312 315 318 319 320 323
277 281 284 286 287 288 290 292 293 294 295 297 298 298 299 300 301 302 302 301 300 301 302 302 300 301 302 304 305 307 310 312 314 316 320 321 323 326
284 286 287 288 290 291 293 294 296 298 299 301 301 301 302 303 303 304 305 305 305 305 304 303 302 301 302 304 306 309 311 313 315 318 322 323 325 328
292 293 294 297 300 302 303 303 304 305 306 306 306 306 306 307 307 308 308 309 310 311 310 308 306 305 305 306 308 311 313 315 317 320 322 323 325 327
300 304 307 309 309 309 310 311 312 312 312 312 313 313 313 314 315 315 315 315 317 318 319 318 315 313 314 315 316 317 318 319 320 320 321 322 324 325
325 324 324 324 324 324 325 326 327 327 327 327 326 326 328 330 331 331 330 329 328 327 327 325 322 322 322 323 322 322 322 322 322 322 322 322 323 324
39 36 29 18 8 360 353 349 348 348 349 350 352 354 354 351 349 347 344 340 338 337 335 332 329 328 328 326 325 325 325 323 322 322 322 321 321 322
65 61 56 47 39 31 23 17 14 14 15 15 15 13 10 7 4 360 354 349 346 343 340 338 335 333 331 329 327 326 325 324 322 321 320 320 320 320
69 67 63 59 55 51 46 43 40 38 34 30 28 25 22 17 10 4 360 356 353 348 344 341 338 336 333 330 328 327 326 324 322 320 319 318 318 319
73 69 66 63 60 57 52 48 45 42 39 36 32 28 23 18 13 8 2 357 353 350 346 341 337 334 332 329 327 326 325 323 322 320 319 317 316 315
Height
5801 5803 5804 5806 5807 5809 5810 5811 5812 5812 5812 5812 5811 5811 5810 5809 5808 5806 5805 5803 5801 5799 5796 5794 5791 5788 5785 5782 5778 5774 5770 5766 5762 5758 5754 5749 5745 5741
5794 5796 5798 5799 5800 5801 5803 5804 5804 5804 5804 5804 5804 5803 5802 5801 5800 5798 5797 5795 5793 5790 5788 5785 5782 5779 5776 5772 5769 5765 5761 5757 5753 5749 5745 5741 5737 5733
5787 5789 5791 5792 5793 5794 5795 5796 5796 5797 5797 5797 5796 5796 5795 5794 5792 5791 5789 5787 5785 5782 5780 5777 5774 5770 5767 5763 5759 5755 5752 5748 5744 5741 5737 5733 5729 5725
5781 5783 5784 5785 5787 5788 5789 5789 5790 5790 5790 5790 5789 5788 5788 5786 5785 5783 5781 5779 5777 5774 5771 5768 5765 5761 5758 5754 5750 5747 5743 5739 5736 5732 5729 5725 5722 5718
5776 5777 5778 5780 5781 5782 5782 5783 5783 5783 5783 5783 5782 5782 5780 5779 5777 5775 5773 5771 5768 5765 5762 5759 5756 5753 5749 5746 5742 5738 5735 5732 5728 5725 5722 5719 5715 5712
5770 5771 5772 5774 5775 5776 5776 5777 5777 5777 5777 5776 5775 5774 5773 5771 5769 5767 5765 5763 5760 5757 5754 5751 5748 5745 5741 5738 5735 5731 5728 5725 5721 5718 5715 5712 5709 5706
5764 5765 5767 5768 5769 5770 5771 5771 5771 5771 5770 5769 5768 5767 5765 5763 5762 5759 5757 5755 5752 5749 5746 5744 5740 5737 5734 5731 5728 5725 5722 5718 5715 5712 5709 5706 5703 5700
5759 5760 5761 5762 5763 5764 5765 5765 5765 5764 5763 5762 5761 5759 5758 5756 5754 5752 5749 5747 5745 5742 5739 5736 5734 5731 5727 5725 5722 5719 5716 5713 5710 5707 5704 5701 5698 5695
5754 5755 5756 5757 5758 5758 5758 5758 5758 5757 5756 5755 5754 5752 5751 5749 5747 5744 5742 5740 5737 5735 5733 5730 5727 5724 5721 5719 5716 5713 5711 5708 5705 5702 5699 5696 5693 5691
5750 5750 5751 5752 5752 5753 5752 5752 5751 5750 5749 5748 5747 5745 5743 5741 5739 5737 5735 5733 5731 5729 5726 5724 5721 5719 5716 5714 5711 5708 5706 5703 5700 5698 5695 5693 5690 5687
5745 5746 5746 5747 5747 5747 5747 5746 5745 5744 5743 5741 5740 5738 5736 5735 5733 5731 5729 5727 5725 5723 5720 5718 5716 5713 5711 5709 5706 5704 5701 5699 5696 5694 5692 5689 5687 5684
5741 5741 5741 5741 5741 5741 5741 5740 5739 5738 5737 5735 5734 5732 5730 5728 5726 5725 5723 5721 5719 5718 5715 5713 5711 5709 5707 5704 5702 5700 5697 5695 5693 5691 5688 5686 5684 5681
5736 5736 5736 5736 5736 5736 5735 5734 5733 5732 5731 5729 5728 5726 5724 5723 5721 5719 5718 5716 5714 5712 5711 5709 5707 5705 5703 5701 5699 5696 5694 5692 5690 5688 5686 5683 5681 5678
5732 5731 5731 5731 5731 5730 5730 5729 5728 5726 5725 5724 5722 5721 5720 5718 5717 5715 5713 5711 5709 5708 5706 5705 5703 5701 5699 5697 5696 5694 5692 5689 5687 5685 5683 5681 5679 5676
5727 5727 5727 5727 5726 5726 5725 5724 5723 5722 5721 5720 5718 5717 5716 5714 5713 5711 5709 5707 5706 5704 5703 5701 5699 5698 5696 5695 5693 5691 5689 5687 5685 5683 5681 5679 5677 5674
5724 5724 5723 5723 5723 5722 5721 5721 5720 5719 5717 5716 5715 5714 5712 5711 5709 5707 5706 5704 5703 5702 5700 5698 5697 5695 5694 5693 5691 5689 5687 5686 5684 5682 5679 5677 5675 5672
5721 5721 5720 5720 5720 5719 5718 5718 5717 5716 5715 5713 5712 5711 5709 5708 5706 5704 5703 5702 5700 5699 5698 5696 5695 5693 5692 5691 5689 5687 5686 5684 5682 5680 5678 5675 5673 5670
5719 5719 5718 5718 5718 5717 5716 5716 5715 5714 5712 5711 5710 5708 5707 5705 5704 5702 5701 5700 5699 5697 5696 5695 5693 5692 5691 5690 5688 5686 5684 5682 5680 5678 5676 5673 5671 5668
5718 5717 5717 5717 5716 5716 5715 5714 5713 5712 5711 5710 5708 5707 5705 5704 5703 5701 5700 5699 5698 5696 5695 5694 5692 5691 5690 5688 5687 5685 5682 5680 5678 5676 5674 5671 5669 5666
5717 5717 5716 5716 5716 5715 5714 5714 5713 5711 5710 5709 5708 5706 5705 5704 5702 5701 5700 5699 5697 5696 5695 5693 5692 5690 5688 5687 5685 5683 5681 5678 5676 5674 5671 5669 5666 5664
5718 5718 5717 5717 5716 5715 5715 5714 5712 5711 5710 5709 5708 5706 5705 5704 5702 5701 5700 5698 5697 5696 5694 5693 5691 5689 5687 5685 5683 5681 5679 5676 5674 5671 5669 5666 5664 5661
5720 5720 5719 5718 5717 5716 5715 5714 5713 5712 5711 5710 5708 5707 5706 5704 5703 5702 5700 5699 5697 5695 5694 5692 5690 5688 5686 5684 5681 5679 5676 5674 5671 5669 5666 5663 5661 5657
5723 5722 5721 5720 5719 5718 5717 5716 5715 5713 5712 5711 5710 5708 5707 5705 5704 5702 5701 5699 5697 5695 5693 5691 5689 5687 5685 5682 5680 5677 5674 5671 5669 5666 5663 5660 5657 5654